When you browse on this site, cookies collect data to enhance your experience and personalize the content and advertising you see.
Visit our Privacy Policy to learn more. By continuing to use the site, you agree to this use of cookies and data.
  • In Spain
  • List of Countries
  • For 7 days
  • Water Temperature
  • Weather Map
  • Weather Widgets
  • user-avatar
    Login

    Hourly Weather Borodenki

    Today, 2 June, Tuesday

    Time Temperature Precipitation Wind Pressure Humidity
    00:00 +6°C° 0.7 mm 7 mps 740 mmHg 93%
    01:00 +6°C° 0.7 mm 7 mps 740 mmHg 93%
    02:00 +6°C° 0 mm 7 mps 740 mmHg 90%
    03:00 +6°C° 0.3 mm 7 mps 740 mmHg 91%
    04:00 +6°C° 0.3 mm 7 mps 739 mmHg 91%
    05:00 +5°C° 0.3 mm 7 mps 739 mmHg 92%
    06:00 +5°C° 1.2 mm 7 mps 739 mmHg 92%
    07:00 +5°C° 1.2 mm 7 mps 739 mmHg 93%
    08:00 +6°C° 0 mm 7 mps 739 mmHg 95%
    09:00 +6°C° 0.2 mm 7 mps 739 mmHg 94%
    10:00 +6°C° 0.2 mm 7 mps 739 mmHg 93%
    11:00 +8°C° 0.2 mm 7 mps 739 mmHg 92%
    12:00 +8°C° 0 mm 7 mps 740 mmHg 91%
    13:00 +8°C° 0 mm 7 mps 740 mmHg 90%
    14:00 +9°C° 0 mm 7 mps 740 mmHg 89%
    15:00 +9°C° 0 mm 7 mps 740 mmHg 87%
    16:00 +10°C° 0 mm 7 mps 740 mmHg 85%
    17:00 +10°C° 0 mm 7 mps 739 mmHg 83%
    18:00 +9°C° 0.4 mm 6 mps 739 mmHg 85%
    19:00 +9°C° 0.4 mm 6 mps 740 mmHg 88%
    20:00 +8°C° 0.4 mm 5 mps 740 mmHg 91%
    21:00 +8°C° 0.2 mm 5 mps 739 mmHg 92%
    22:00 +8°C° 0.2 mm 4 mps 739 mmHg 94%
    23:00 +8°C° 0.2 mm 4 mps 739 mmHg 95%

    Tomorrow, 3 June, Wednesday

    Time Temperature Precipitation Wind Pressure Humidity
    00:00 +9°C° 0.1 mm 3 mps 739 mmHg 96%
    01:00 +9°C° 0.1 mm 3 mps 739 mmHg 96%
    02:00 +9°C° 0.1 mm 3 mps 739 mmHg 97%
    03:00 +9°C° 0 mm 3 mps 739 mmHg 97%
    04:00 +9°C° 0 mm 2 mps 739 mmHg 97%
    05:00 +9°C° 0 mm 2 mps 738 mmHg 97%
    06:00 +10°C° 0 mm 2 mps 739 mmHg 95%
    07:00 +12°C° 0 mm 2 mps 739 mmHg 92%
    08:00 +13°C° 0 mm 2 mps 739 mmHg 90%
    09:00 +14°C° 0.1 mm 1 mps 739 mmHg 84%
    10:00 +15°C° 0.1 mm 1 mps 739 mmHg 78%
    11:00 +16°C° 0.1 mm 1 mps 738 mmHg 72%
    12:00 +18°C° 0.2 mm 1 mps 738 mmHg 68%
    13:00 +19°C° 0.2 mm 1 mps 738 mmHg 63%
    14:00 +20°C° 0.2 mm 1 mps 738 mmHg 59%
    15:00 +19°C° 0.1 mm 1 mps 738 mmHg 61%
    16:00 +19°C° 0.1 mm 1 mps 737 mmHg 63%
    17:00 +19°C° 0.1 mm 1 mps 737 mmHg 65%
    18:00 +16°C° 0.1 mm 1 mps 737 mmHg 73%
    19:00 +14°C° 0.1 mm 1 mps 737 mmHg 81%
    20:00 +13°C° 0.1 mm 1 mps 737 mmHg 89%
    21:00 +12°C° 0 mm 1 mps 736 mmHg 90%
    22:00 +11°C° 0 mm 1 mps 736 mmHg 91%
    23:00 +9°C° 0 mm 0 mps 736 mmHg 92%

    Day after tomorrow, 4 June, Thursday

    Time Temperature Precipitation Wind Pressure Humidity
    00:00 +10°C° 0 mm 1 mps 736 mmHg 92%
    01:00 +9°C° 0 mm 1 mps 735 mmHg 92%
    02:00 +9°C° 0 mm 1 mps 735 mmHg 93%
    03:00 +9°C° 0 mm 1 mps 735 mmHg 92%
    04:00 +10°C° 0 mm 1 mps 735 mmHg 92%
    05:00 +10°C° 0 mm 1 mps 735 mmHg 92%
    06:00 +12°C° 0 mm 2 mps 735 mmHg 87%
    07:00 +12°C° 0 mm 3 mps 735 mmHg 83%
    08:00 +14°C° 0 mm 3 mps 736 mmHg 79%
    09:00 +15°C° 0.2 mm 4 mps 736 mmHg 77%
    10:00 +15°C° 0.2 mm 4 mps 736 mmHg 75%
    11:00 +17°C° 0.2 mm 4 mps 736 mmHg 73%
    12:00 +17°C° 0.8 mm 4 mps 736 mmHg 75%
    13:00 +17°C° 0.8 mm 4 mps 736 mmHg 78%
    14:00 +17°C° 0.8 mm 4 mps 736 mmHg 81%
    15:00 +17°C° 0.4 mm 4 mps 736 mmHg 80%
    16:00 +17°C° 0.4 mm 4 mps 736 mmHg 80%
    17:00 +17°C° 0.4 mm 4 mps 736 mmHg 80%
    18:00 +14°C° 0.2 mm 3 mps 736 mmHg 84%
    19:00 +13°C° 0.2 mm 3 mps 736 mmHg 88%
    20:00 +12°C° 0.2 mm 3 mps 736 mmHg 92%
    21:00 +11°C° 0 mm 3 mps 736 mmHg 93%
    22:00 +11°C° 0 mm 3 mps 736 mmHg 94%
    23:00 +10°C° 0 mm 3 mps 736 mmHg 95%

    5 June, Friday

    Time Temperature Precipitation Wind Pressure Humidity
    00:00 +10°C° 0 mm 3 mps 736 mmHg 96%
    01:00 +9°C° 0 mm 3 mps 736 mmHg 96%
    02:00 +9°C° 0 mm 3 mps 736 mmHg 96%
    03:00 +9°C° 0 mm 3 mps 736 mmHg 97%
    04:00 +10°C° 0 mm 3 mps 736 mmHg 97%
    05:00 +10°C° 0 mm 3 mps 736 mmHg 97%
    06:00 +11°C° 0 mm 4 mps 736 mmHg 92%
    07:00 +13°C° 0 mm 4 mps 737 mmHg 87%
    08:00 +14°C° 0 mm 4 mps 737 mmHg 83%
    09:00 +15°C° 0.2 mm 4 mps 737 mmHg 77%
    10:00 +17°C° 0.2 mm 4 mps 737 mmHg 72%
    11:00 +18°C° 0.2 mm 4 mps 737 mmHg 67%
    12:00 +19°C° 0.2 mm 4 mps 737 mmHg 66%
    13:00 +19°C° 0.2 mm 4 mps 737 mmHg 65%
    14:00 +20°C° 0.2 mm 4 mps 737 mmHg 64%
    15:00 +20°C° 0.1 mm 4 mps 737 mmHg 67%
    16:00 +20°C° 0.1 mm 4 mps 737 mmHg 70%
    17:00 +20°C° 0.1 mm 4 mps 737 mmHg 73%
    18:00 +18°C° 0.2 mm 4 mps 737 mmHg 79%
    19:00 +17°C° 0.2 mm 4 mps 737 mmHg 85%
    20:00 +15°C° 0.2 mm 4 mps 737 mmHg 90%
    21:00 +14°C° 0 mm 3 mps 737 mmHg 92%
    22:00 +14°C° 0 mm 3 mps 737 mmHg 93%
    23:00 +14°C° 0 mm 3 mps 737 mmHg 95%

    6 June, Saturday

    Time Temperature Precipitation Wind Pressure Humidity
    00:00 +14°C° 0.1 mm 4 mps 737 mmHg 95%
    01:00 +14°C° 0.1 mm 4 mps 737 mmHg 96%
    02:00 +14°C° 0.1 mm 4 mps 737 mmHg 96%
    03:00 +14°C° 1.2 mm 4 mps 737 mmHg 97%
    04:00 +14°C° 1.2 mm 4 mps 737 mmHg 97%
    05:00 +14°C° 1.2 mm 4 mps 737 mmHg 98%
    06:00 +15°C° 0.1 mm 4 mps 737 mmHg 96%
    07:00 +17°C° 0.1 mm 4 mps 737 mmHg 95%
    08:00 +18°C° 0.1 mm 4 mps 737 mmHg 94%
    09:00 +19°C° 0.1 mm 5 mps 737 mmHg 90%
    10:00 +20°C° 0.1 mm 5 mps 738 mmHg 85%
    11:00 +21°C° 0.1 mm 5 mps 738 mmHg 81%
    12:00 +21°C° 1.2 mm 5 mps 738 mmHg 85%
    13:00 +20°C° 1.2 mm 5 mps 738 mmHg 88%
    14:00 +19°C° 1.2 mm 5 mps 739 mmHg 92%
    15:00 +19°C° 0.3 mm 4 mps 739 mmHg 90%
    16:00 +19°C° 0.3 mm 3 mps 740 mmHg 89%
    17:00 +20°C° 0.3 mm 3 mps 740 mmHg 87%
    18:00 +19°C° 0 mm 2 mps 740 mmHg 89%
    19:00 +18°C° 0 mm 2 mps 741 mmHg 91%
    20:00 +18°C° 0 mm 1 mps 741 mmHg 93%
    21:00 +16°C° 0 mm 1 mps 742 mmHg 94%
    22:00 +15°C° 0 mm 1 mps 742 mmHg 94%
    23:00 +14°C° 0 mm 1 mps 743 mmHg 94%

    7 June, Sunday

    Time Temperature Precipitation Wind Pressure Humidity
    00:00 +14°C° 0 mm 1 mps 743 mmHg 93%
    01:00 +13°C° 0 mm 1 mps 743 mmHg 93%
    02:00 +13°C° 0 mm 1 mps 744 mmHg 93%
    03:00 +13°C° 0 mm 1 mps 744 mmHg 93%
    04:00 +13°C° 0 mm 1 mps 744 mmHg 93%
    05:00 +14°C° 0 mm 1 mps 744 mmHg 93%
    06:00 +16°C° 0 mm 1 mps 745 mmHg 88%
    07:00 +18°C° 0 mm 1 mps 745 mmHg 83%
    08:00 +20°C° 0 mm 1 mps 745 mmHg 78%
    09:00 +22°C° 0 mm 1 mps 745 mmHg 73%
    10:00 +23°C° 0 mm 1 mps 746 mmHg 69%
    11:00 +24°C° 0 mm 1 mps 746 mmHg 64%
    12:00 +25°C° 0 mm 1 mps 746 mmHg 63%
    13:00 +25°C° 0 mm 1 mps 745 mmHg 62%
    14:00 +25°C° 0 mm 1 mps 745 mmHg 61%
    15:00 +25°C° 0.1 mm 1 mps 745 mmHg 64%
    16:00 +25°C° 0.1 mm 1 mps 745 mmHg 67%
    17:00 +25°C° 0.1 mm 1 mps 745 mmHg 70%
    18:00 +23°C° 0.5 mm 1 mps 745 mmHg 77%
    19:00 +22°C° 0.5 mm 1 mps 745 mmHg 83%
    20:00 +20°C° 0.5 mm 1 mps 745 mmHg 90%
    21:00 +20°C° 0.5 mm 1 mps 745 mmHg 91%
    22:00 +19°C° 0.5 mm 1 mps 745 mmHg 92%
    23:00 +19°C° 0.5 mm 1 mps 745 mmHg 94%
    Show more